TimeEST,TemperatureF,Dew PointF,Humidity,Sea Level PressureIn,VisibilityMPH,Wind Direction,Wind SpeedMPH,Gust SpeedMPH,PrecipitationIn,Events,Conditions,WindDirDegrees,DateUTC
12:54 AM,28.0,21.0,75,30.23,10.0,Calm,Calm,-,N/A,,Overcast,0,2013-01-16 05:54:00
1:54 AM,28.0,21.0,75,30.21,10.0,East,4.6,-,N/A,,Overcast,100,2013-01-16 06:54:00
2:54 AM,28.0,19.9,72,30.17,10.0,East,3.5,-,N/A,,Mostly Cloudy,100,2013-01-16 07:54:00
3:54 AM,28.9,19.9,69,30.16,10.0,Calm,Calm,-,N/A,,Scattered Clouds,0,2013-01-16 08:54:00
4:54 AM,28.9,19.0,67,30.12,10.0,Calm,Calm,-,N/A,,Overcast,0,2013-01-16 09:54:00
5:54 AM,28.9,19.0,67,30.11,10.0,Calm,Calm,-,N/A,,Overcast,0,2013-01-16 10:54:00
6:54 AM,30.2,19.4,64,30.08,10.0,Calm,Calm,-,N/A,,Overcast,0,2013-01-16 11:54:00
7:54 AM,30.0,19.9,66,30.08,10.0,SSE,3.5,-,N/A,,Overcast,150,2013-01-16 12:54:00
8:54 AM,30.0,21.9,72,30.06,9.0,South,8.1,-,0.00,,Overcast,190,2013-01-16 13:54:00
9:54 AM,30.0,24.1,79,30.03,8.0,South,6.9,-,0.00,Snow,Light Snow,180,2013-01-16 14:54:00
10:24 AM,30.2,24.8,80,30.01,3.0,South,6.9,-,0.00,Snow,Light Snow,180,2013-01-16 15:24:00
10:36 AM,30.2,24.8,80,30.00,2.5,South,6.9,-,0.01,Snow,Light Snow,170,2013-01-16 15:36:00
10:54 AM,30.0,26.1,85,30.00,1.5,South,9.2,-,0.01,Snow,Light Snow,170,2013-01-16 15:54:00
10:58 AM,30.2,26.6,86,29.98,1.2,South,9.2,-,0.00,Snow,Light Snow,170,2013-01-16 15:58:00
11:05 AM,30.2,26.6,86,29.98,0.8,South,9.2,-,0.00,Snow,Light Snow,170,2013-01-16 16:05:00
11:19 AM,30.2,26.6,86,29.97,1.0,SSE,6.9,-,0.01,Snow,Light Snow,160,2013-01-16 16:19:00
11:33 AM,30.2,26.6,86,29.95,0.8,South,5.8,-,0.01,Snow,Light Snow,170,2013-01-16 16:33:00
11:48 AM,30.2,26.6,86,29.94,1.5,South,6.9,-,0.02,Snow,Light Snow,170,2013-01-16 16:48:00
11:54 AM,30.0,27.0,88,29.94,1.5,South,5.8,-,0.02,Snow,Light Snow,170,2013-01-16 16:54:00
12:08 PM,30.2,26.6,86,29.91,1.0,SSE,6.9,-,0.00,Snow,Light Snow,160,2013-01-16 17:08:00
12:29 PM,30.2,26.6,86,29.90,0.8,SSE,5.8,-,0.00,Snow,Light Snow,160,2013-01-16 17:29:00
12:46 PM,30.2,26.6,86,29.89,0.8,South,5.8,-,0.01,Snow,Light Snow,190,2013-01-16 17:46:00
12:54 PM,30.0,27.0,88,29.90,1.0,South,3.5,-,0.01,Snow,Light Snow,180,2013-01-16 17:54:00
1:54 PM,30.2,26.6,86,29.84,1.5,SSE,6.9,-,N/A,Snow,Light Snow,160,2013-01-16 18:54:00
2:01 PM,30.2,26.6,86,29.84,2.5,SSE,5.8,-,0.00,Snow,Light Snow,160,2013-01-16 19:01:00
2:20 PM,30.2,26.6,86,29.83,3.0,SSE,8.1,-,0.00,Snow,Light Snow,160,2013-01-16 19:20:00
2:47 PM,30.2,26.6,86,29.82,3.0,South,6.9,-,0.00,Snow,Light Snow,180,2013-01-16 19:47:00
2:54 PM,30.2,26.6,86,29.82,3.0,South,6.9,-,N/A,Snow,Light Snow,180,2013-01-16 19:54:00
3:19 PM,30.2,26.6,86,29.81,2.0,South,5.8,-,0.00,Snow,Light Snow,170,2013-01-16 20:19:00
3:51 PM,30.2,26.6,86,29.80,3.0,South,6.9,-,0.00,Snow,Light Snow,170,2013-01-16 20:51:00
3:54 PM,30.9,27.0,85,29.82,5.0,South,6.9,-,0.00,Snow,Light Snow,170,2013-01-16 20:54:00
4:54 PM,30.0,26.1,85,29.80,10.0,South,5.8,-,0.00,,Partly Cloudy,170,2013-01-16 21:54:00
5:41 PM,30.2,26.6,86,29.78,10.0,SSW,8.1,-,N/A,,Mostly Cloudy,200,2013-01-16 22:41:00
5:54 PM,30.0,26.1,85,29.78,10.0,South,11.5,-,N/A,,Mostly Cloudy,190,2013-01-16 22:54:00
6:09 PM,30.2,26.6,86,29.77,10.0,South,12.7,19.6,N/A,,Scattered Clouds,190,2013-01-16 23:09:00
6:54 PM,30.0,26.1,85,29.78,10.0,South,5.8,-,N/A,,Partly Cloudy,180,2013-01-16 23:54:00
7:54 PM,30.9,26.1,82,29.79,10.0,SSW,13.8,-,N/A,,Clear,200,2013-01-17 00:54:00
8:54 PM,30.9,26.1,82,29.78,10.0,SSW,11.5,-,N/A,,Clear,200,2013-01-17 01:54:00
9:54 PM,30.9,26.1,82,29.78,10.0,SSW,9.2,-,N/A,,Clear,210,2013-01-17 02:54:00
10:54 PM,30.0,26.1,85,29.78,10.0,SSW,9.2,-,N/A,,Clear,200,2013-01-17 03:54:00
11:54 PM,30.9,26.1,82,29.78,10.0,SSW,6.9,-,N/A,,Overcast,200,2013-01-17 04:54:00